Regional Weather Roundup
Issued by NWS

Home | Current Version | Previous Version | Graphics & Text | Print | Product List | Glossary On
Versions: 1 2 3 4 5 6 7 8 9 10 11 12 13 14 15 16 17 18 19 20 21 22 23 24 25 26 27 28 29 30 31 32 33 34 35 36 37 38 39 40 41 42 43 44 45 46 47 48 49 50
000
ASUS43 KDMX 260406
RWRIA

WEATHER ROUNDUP FOR IOWA
NATIONAL WEATHER SERVICE DES MOINES IA
1100 PM CDT SUN JUN 25 2017

NOTE: "FAIR" INDICATES FEW OR NO CLOUDS BELOW 12,000 FEET WITH NO
SIGNIFICANT WEATHER AND/OR OBSTRUCTIONS TO VISIBILITY.

* - THESE STATIONS ARE NOT NWS STATIONS...THUS NOT UNDER NWS
QUALITY CONTROL.  THEY ALSO DO NOT REPORT WEATHER SUCH
AS PRECIPITATION OR FOG.

IAZ001>003-012>014-020>022-031>034-043>046-260500-
   NORTHWEST IOWA

CITY           SKY/WX    TMP DP  RH WIND       PRES   REMARKS
CARROLL *      CLEAR     54  45  71 CALM      30.19S
CHEROKEE *     MOCLDY    55  47  76 CALM      30.18F
DENISON *      CLEAR     55  45  67 CALM      30.21S
LE MARS *      PTCLDY    55  48  76 CALM      30.18F
ORANGE CITY *  CLOUDY    61  45  55 E3        30.18F
SHELDON *      PTCLDY    57  45  62 E7        30.17F
SIOUX CITY     CLEAR     57  45  64 E5        30.17S
SPENCER        PTCLDY    57  45  64 NE3       30.18F
STORM LAKE *   PTCLDY    59  43  55 CALM      30.20S
$$

IAZ055>058-069>071-079>083-090>094-260500-
   SOUTHWEST IOWA

CITY           SKY/WX    TMP DP  RH WIND       PRES   REMARKS
ATLANTIC *     CLEAR     55  48  76 CALM      30.20F
AUDUBON *      CLEAR     52  46  82 CALM      30.21F
CLARINDA *       N/A     55  52  88 CALM      30.24F
COUNCIL BLFS * CLEAR     61  45  55 SE5       30.20F
CRESTON *      CLEAR     59  45  58 W6        30.23S
HARLAN  *      CLEAR     55  48  76 CALM      30.22F
LAMONI         CLEAR     61  46  57 W6        30.22S
RED OAK *      PTCLDY    55  50  82 CALM      30.21F
SHENANDOAH *   CLEAR     55  52  88 CALM      30.21F
$$

IAZ047>049-059>061-072>074-084-260500-
   CENTRAL IOWA

CITY           SKY/WX    TMP DP  RH WIND       PRES   REMARKS
AMES           CLEAR     55  48  77 CALM      30.19S
ANKENY *       CLEAR     55  48  76 CALM      30.20F
BOONE *        CLEAR     59  43  55 N5        30.18F
CHARITON *     CLEAR     61  45  55 W6        30.20S
DES MOINES     CLEAR     65  43  44 CALM      30.19S
GRINNELL*      PTCLDY    58  44  59 CALM      30.20S
KNOXVILLE *    CLEAR     63  46  55 N5        30.18F
MARSHALLTOWN   MOCLDY    57  45  64 NW5       30.18S
NEWTON *       CLEAR     59  43  55 N5        30.19S
PELLA *        CLEAR     58  46  62 CALM      30.20F
PERRY *          N/A     54  46  74 CALM      30.20S
$$

IAZ004>006-015-016-023>025-035-036-260500-
   NORTH CENTRAL IOWA

CITY           SKY/WX    TMP DP  RH WIND       PRES   REMARKS
ALGONA *       CLOUDY    59  48  67 NW9G16    30.19F
CLARION *        N/A     57  48  72 W6        30.19S
ESTHERVILLE    CLOUDY    55  51  86 W6        30.17F
FORT DODGE *   PTCLDY    54  43  66 CALM      30.21R
MASON CITY     CLEAR     56  42  59 W6        30.18F
FOREST CITY *    N/A     55  34  44 CALM      30.18S
WEBSTER CITY * PTCLDY    57  45  62 CALM      30.18R
IOWA FALLS *     N/A     56  47  72 W3        30.20S
$$

IAZ007>011-017>019-026>030-037>042-050>054-066-260500-
   NORTHEAST IOWA

CITY           SKY/WX    TMP DP  RH WIND       PRES   REMARKS
CEDAR RAPIDS   CLEAR     53  46  77 W6        30.16S
CHARLES CITY * CLEAR     54  45  71 W5        30.16F
CLINTON *      CLEAR     54  51  90 W6        30.15S
DECORAH *      CLEAR     55  45  67 W5        30.14R
DUBUQUE        CLEAR     53  47  79 W3        30.15S
MONTICELLO *   CLEAR     55  48  76 CALM      30.15S
OELWEIN *      CLEAR     54  46  76 W7        30.17S
WATERLOO       PTCLDY    57  42  57 W6        30.16S
$$

IAZ064-065-067-068-078-260500-
   EAST CENTRAL IOWA

CITY           SKY/WX    TMP DP  RH WIND       PRES   REMARKS
DAVENPORT      CLEAR     55  50  83 W5        30.16S
IOWA CITY      CLEAR     57  46  66 NW6       30.18S
MT. PLEASANT * CLEAR     56  45  66 W5        30.18S
MUSCATINE *    CLEAR     57  48  72 CALM      30.17S
QUAD CITIES    CLEAR     56  50  80 CALM      30.16R
$$

IAZ062-063-075>077-085>089-095>099-260500-
   SOUTHEAST IOWA

CITY           SKY/WX    TMP DP  RH WIND       PRES   REMARKS
BURLINGTON     CLEAR     60  46  59 W5        30.17S
FAIRFIELD *    PTCLDY    57  45  62 W6        30.18S
FORT MADISON * CLEAR     61  46  59 W5        30.19S
KEOKUK *       CLEAR     57  48  72 W6        30.18S
OSKALOOSA *      N/A     56  46  71 NW6       30.19S
CENTERVILLE *    N/A     57  50  77 CALM      30.22S
OTTUMWA        CLEAR     55  46  71 W6        30.19R
WASHINGTON *   CLEAR     55  46  71 NW5       30.19S
$$

ABBREVIATIONS USED IN REMARKS
   TC - TEMPERATURES IN CELSIUS
  WCI - WIND CHILL INDEX
   HX - HEAT INDEX
  VSB - VISIBILITY
$$





USA.gov is the U.S. government's official web portal to all federal, state and local government web resources and services.